Flag for Maldives Weather past 2 weeks in Male, Maldives

Now
82 °F

Passing clouds.


Feels Like: 89 °F
Forecast: 80 / 87 °F
Wind: No wind

Location: Male Airport

Current Time: Dec 23, 2014 at 1:37:44 AM

Latest Report: Dec 23, 2014 at 1:00 AM


Visibility: N/A

Pressure: 29.83 "Hg

Humidity: 79%

Dew point: 75 °F

Location of MaleLocation

Historic Weather in Male — Graph

°F

Male temperature yesterday

Maximum temperature yesterday: 86 °F (at 11:00 AM)
Minimum temperature yesterday: 81 °F (at 3:00 AM)
Average temperature yesterday: 83 °F

Past Weeks' High & Low Weather Summary

 TemperatureHumidityPressure
High88 °F (Dec 8, 10:00 AM)100% (Dec 17, 10:00 PM)29.95 "Hg (Dec 17, 10:00 PM)
Low77 °F (Dec 11, 10:00 AM)66% (Dec 13, 12:00 PM)29.77 "Hg (Dec 17, 3:00 PM)
Average83 °F81%29.86 "Hg
* Reported Midnight between Dec 7 and Dec 8 — Midnight between Dec 22 and Dec 23, Male, Weather by CustomWeather, © 2014

Note: Actual official high and low records may vary slightly from our data, if they occured in-between our weather recording intervals... More about our weather records

Advertising

Male weather history for previous 24 hours

 ConditionsComfort  
Time TempWeatherWind HumidityBarometerVisibility
12:00 AM
Dec 23
82 °FPassing clouds.3 mph79%29.83 "HgN/A
11:00 PM
Dec 22
82 °FPassing clouds.5 mph84%29.86 "HgN/A
10:00 PM82 °FPassing clouds.3 mph84%29.89 "HgN/A
9:00 PM82 °FPassing clouds.No wind79%29.89 "HgN/A
8:00 PM82 °FPassing clouds.No wind84%29.86 "HgN/A
7:00 PM82 °FPassing clouds.No wind84%29.83 "HgN/A
6:00 PM82 °FPartly cloudy.No wind84%29.80 "HgN/A
5:00 PM86 °FPartly sunny.No wind75%29.77 "HgN/A
4:00 PM86 °FPartly sunny.No wind70%29.77 "HgN/A
3:00 PM84 °FPartly sunny.1 mph79%29.77 "HgN/A
2:00 PM86 °FPartly sunny.No wind75%29.80 "HgN/A
1:00 PM86 °FBroken clouds.5 mph75%29.83 "HgN/A
12:00 PM84 °FPartly sunny.5 mph79%29.83 "HgN/A
11:00 AM86 °FPartly sunny.6 mph75%29.89 "HgN/A
10:00 AM84 °FPartly sunny.7 mph79%29.89 "HgN/A
9:00 AM84 °FBroken clouds.6 mph79%29.89 "HgN/A
8:00 AM82 °FBroken clouds.3 mph84%29.86 "HgN/A
7:00 AM81 °FPartly sunny.No wind84%29.83 "HgN/A
6:00 AM81 °FPassing clouds.12 mph89%29.80 "HgN/A
5:00 AM81 °FPartly cloudy.16 mph89%29.80 "HgN/A
4:00 AM81 °FPartly cloudy.10 mph84%29.80 "HgN/A
3:00 AM81 °FPartly cloudy.10 mph89%29.80 "HgN/A
1:00 AM82 °FPassing clouds.No wind79%29.83 "HgN/A
Weather by CustomWeather, © 2014

See weather overviewHow to use our weather pages